Find Starlink 37706

NORAD ID: 69127 Int'l Des: 2026-110 Owner: SPXS Country: US Constellation: starlink operational
LEOCIRCULARRETROGRADE

当前视图

正在加载3D地球...

About Starlink 37706

Starlink 37706 (NORAD 69127) is a starlink constellation satellite (v2 mini) launched May 20, 2026 by SPXS of US. It operates in LEO, CIRCULAR, RETROGRADE orbit with a mass of 575.00 kg.

即将过境

Passes for default location (London). Set your location on the main map for personalized predictions.

高度历史

Loading altitude history...

两行轨道根数

1 69127U 26110D 26234.99230053 .00014982 00000-0 46545-3 0 9994
2 69127 97.2863 70.4007 0001417 85.3433 274.7971 15.33445861 15844
Epoch: Aug 22, 2026 • Age: 34 hours

当前状态

高度 487.7 km
远地点 / 近地点 N/A
速度 7.62 km/s
星下点 -55.03°S, 122.73°E
发射日期 May 20, 2026
运行时间 0.2 years
类型 internet

技术详情

分类 Payload
质量 575.00 kg
干质量 530.00 kg
总质量 575.00 kg
长度 0.30 m
直径 4.10 m
跨度 29.00 m
形状 Box + pan
制造商 SPXS
平台类型 Starlink V2MO
阶段状态 In Orbit
所有者/国家 SPXS/US

Most Searched